Location: *
(23.5860°S, 65.4036°W)
Time: 10:26:25
(UTC+00:00)

CZ-2C R/B - Pass Details

Date: 25 August 2019
Orbit: 639 x 705 km, 98.4° (Epoch: 20 October)

Event Time Altitude Azimuth Distance (km) Brightness Sun altitude
Rises 23:08:12 0° 9° (N) 2,957 7.0 -14.3°
Reaches altitude 10° 23:10:25 10° 8° (N) 2,046 6.2 -14.8°
Maximum altitude 23:14:52 75° 282° (WNW) 672 3.8 -15.8°
Drops below altitude 10° 23:19:19 10° 196° (SSW) 2,052 6.4 -16.9°
Sets 23:21:33 0° 194° (SSW) 2,966 7.2 -17.4°
